Location: Houston
(29.7630°N, 95.3630°W)
Time: 17:03:39
(UTC-05:00)

Amateur Radio Satellites - All Passes

Search period start: 27 May 2016 16:33
Search period end: 28 May 2016 16:33
Location: Houston, 29.7630°N, 95.3630°W

Satellite Date Start Highest point End Downlink Frequencies (MHz)
Time Altitude Azimuth
RS-15 27 May 16:38:10 16:47:50 35° 105° (ESE) 16:57:51 29.354- 29.394
STARS 27 May 16:43:16 16:46:37 21° 97° (E) 16:49:56 437.465
BEESAT 27 May 16:46:55 16:49:55 17° 292° (WNW) 16:52:55 436.000
ITAMSAT 1 27 May 16:59:32 17:01:08 11° 267° (W) 17:02:45 435.822/435.867
YUBILEINY 27 May 17:07:16 17:15:58 86° 275° (W) 17:24:43 435.215
Cosmos 2491 27 May 17:16:00 17:23:55 40° 272° (W) 17:31:49 435.465 / 435.565
AO-7 27 May 17:26:56 17:34:14 34° 260° (W) 17:41:35 29.400- 29.500
NOAA 15 27 May 17:40:53 17:44:35 20° 68° (ENE) 17:48:18 137.62
KKS-1 27 May 17:43:09 17:47:01 30° 288° (WNW) 17:50:52 437.445
NOAA 18 27 May 17:43:17 17:46:50 18° 67° (ENE) 17:50:24 137.9125
Cubesat XI-IV 27 May 17:46:30 17:49:13 14° 66° (ENE) 17:51:54 437.490
CUBESAT XI-V 27 May 17:46:42 17:49:46 17° 95° (E) 17:52:49 437.345
MOZHAYETS 4 27 May 17:57:50 18:01:52 30° 287° (WNW) 18:05:53
HORYU 2 27 May 18:01:35 18:05:38 35° 261° (W) 18:09:42 437.375
Cosmos 2504 27 May 18:12:40 18:19:44 70° 93° (E) 18:27:08 435.465 / 435.565
BRITE-PL 27 May 18:15:22 18:20:21 34° 72° (ENE) 18:25:27 437.365/2234.400
STARS 27 May 18:19:22 18:22:51 24° 289° (WNW) 18:26:18 437.465
CUTE-I 27 May 18:30:13 18:35:10 41° 72° (ENE) 18:40:06 437.470
GOMX 1 27 May 18:40:47 18:45:26 29° 72° (ENE) 18:50:01 467.674
RS-15 27 May 18:48:42 18:59:35 54° 303° (WNW) 19:11:10 29.354- 29.394
HO-68 27 May 19:00:33 19:02:02 11° 58° (ENE) 19:03:31 435.675
LilacSat-2 27 May 19:10:26 19:14:14 68° 260° (W) 19:18:00 437.200
YUBILEINY 27 May 19:10:46 19:13:51 12° 292° (WNW) 19:16:58 435.215
NOAA 15 27 May 19:19:05 19:24:00 39° 261° (W) 19:28:58 137.62
PCSat 27 May 19:21:46 19:26:23 28° 59° (ENE) 19:30:58 145.827
NOAA 18 27 May 19:21:52 19:27:05 46° 260° (W) 19:32:18 137.9125
CUBESAT XI-V 27 May 19:22:55 19:27:10 34° 287° (WNW) 19:31:22 437.345
Cubesat XI-IV 27 May 19:23:34 19:28:45 55° 259° (W) 19:33:58 437.490
O/OREOS (USA 219) 27 May 19:24:17 19:26:36 14° 62° (ENE) 19:28:55 437.305
DOVE 4 27 May 19:29:27 19:34:22 41° 74° (ENE) 19:39:10 437.250
BRITE-PL 27 May 19:54:14 19:58:43 25° 265° (W) 20:03:22 437.365/2234.400
CANX-2 27 May 19:59:29 20:02:40 21° 72° (ENE) 20:05:52 2200.000
CINEMA 3 27 May 20:01:09 20:05:00 24° 72° (ENE) 20:08:43 145.822/145.860
SEEDS 27 May 20:03:13 20:05:25 14° 69° (ENE) 20:07:36 437.485
Cosmos 2504 27 May 20:09:56 20:13:46 15° 290° (WNW) 20:17:42 435.465 / 435.565
CUTE-I 27 May 20:11:46 20:15:17 18° 265° (W) 20:18:48 437.470
GOMX 1 27 May 20:18:37 20:23:18 29° 263° (W) 20:28:00 467.674
AUBIESAT-1 27 May 20:22:26 20:26:40 67° 73° (ENE) 20:30:36 437.475
CUTE 1.7 + AOD 2 27 May 20:25:54 20:29:49 39° 75° (ENE) 20:33:44 437.475
M-CUBED/EXP-1 PRIME 27 May 20:29:01 20:33:23 78° 252° (WSW) 20:37:26 437.505
STRAND 1 27 May 20:41:16 20:46:26 83° 284° (WNW) 20:51:35 437.568
HO-68 27 May 20:41:29 20:48:36 79° 74° (ENE) 20:55:46 435.675
COMPASS 1 27 May 20:47:28 20:51:13 34° 74° (ENE) 20:55:00 437.405
AAUSAT CUBESAT 2 27 May 20:50:09 20:53:42 29° 73° (ENE) 20:57:17 437.432
CUBEBUG 2 27 May 20:50:36 20:54:09 24° 73° (ENE) 20:57:37 437.445
AIST 1 27 May 20:53:38 20:56:17 16° 88° (E) 20:58:56
PHONESAT 2.4 27 May 20:53:39 20:56:07 21° 142° (SE) 20:58:35 2401.200-2431.200
PRISM 27 May 21:00:06 21:03:23 22° 97° (E) 21:06:38 437.425
BEESAT 3 27 May 21:01:03 21:04:26 27° 58° (ENE) 21:07:49 437.485
O/OREOS (USA 219) 27 May 21:01:57 21:06:07 39° 256° (WSW) 21:10:16 437.305
PCSat 27 May 21:05:02 21:09:40 30° 253° (WSW) 21:14:17 145.827
GONETS M04 27 May 21:05:09 21:10:24 18° 82° (E) 21:15:39
ISS 27 May 21:08:21 21:11:36 76° 132° (SE) 21:14:50 145.825
DOVE 4 27 May 21:08:35 21:12:04 18° 265° (W) 21:15:31 437.250
RS-15 27 May 21:10:19 21:15:38 14° 330° (NNW) 21:21:05 29.354- 29.394
UWE-3 27 May 21:18:34 21:22:30 34° 74° (ENE) 21:26:21 435.000/436.395/437.385
DELFI C3 27 May 21:23:02 21:23:13 10° 68° (ENE) 21:23:24 145.870
FUNcube-1 27 May 21:23:05 21:26:24 22° 72° (ENE) 21:29:40 145.935
CANX-2 27 May 21:35:08 21:38:22 22° 264° (W) 21:41:38 2200.000
SEEDS 27 May 21:37:00 21:40:46 33° 262° (W) 21:44:33 437.485
CINEMA 3 27 May 21:38:01 21:41:58 25° 263° (W) 21:45:48 145.822/145.860
BEESAT 2 27 May 22:03:36 22:07:36 88° 74° (ENE) 22:11:33 435.950
CUTE 1.7 + AOD 2 27 May 22:04:25 22:05:46 11° 267° (W) 22:07:06 437.475
Oscar 11 27 May 22:05:31 22:09:48 81° 259° (WSW) 22:14:07 145.826/435.025
CUSAT 1 27 May 22:08:25 22:11:35 13° 64° (ENE) 22:14:30 437.405
ZACube-1 27 May 22:20:11 22:24:24 59° 260° (W) 22:28:32 437.345
COMPASS 1 27 May 22:25:02 22:26:50 13° 266° (W) 22:28:40 437.405
AAUSAT CUBESAT 2 27 May 22:26:47 22:29:10 15° 265° (W) 22:31:36 437.432
CUBEBUG 2 27 May 22:27:16 22:30:38 21° 263° (W) 22:33:57 437.445
HUMSAT D 27 May 22:27:41 22:31:16 30° 73° (ENE) 22:34:51 437.325/437.525
PHONESAT 2.4 27 May 22:29:44 22:32:43 41° 334° (NNW) 22:35:43 2401.200-2431.200
AIST 1 27 May 22:29:44 22:33:33 29° 280° (W) 22:37:25
HO-68 27 May 22:33:35 22:36:49 13° 267° (W) 22:40:03 435.675
PRISM 27 May 22:35:24 22:38:30 21° 289° (WNW) 22:41:36 437.425
AIST 2 27 May 22:39:04 22:40:00 11° 52° (NE) 22:40:56 435.215
BEESAT 3 27 May 22:39:23 22:41:52 16° 251° (WSW) 22:44:22 437.485
ANTELSAT 27 May 22:43:13 22:45:50 16° 95° (E) 22:48:29 437.575/2403.000
Cosmos 2499 27 May 22:46:53 22:53:46 54° 91° (E) 23:01:05 435.465 / 435.565
DELFI C3 27 May 22:53:54 22:57:38 41° 261° (W) 23:01:24 145.870
UWE-3 27 May 22:56:42 22:58:59 14° 265° (W) 23:01:14 435.000/436.395/437.385
GONETS M04 27 May 22:57:26 23:06:13 73° 276° (W) 23:15:00
FUNcube-1 27 May 22:59:18 23:02:30 21° 263° (W) 23:05:41 145.935
AISAT 27 May 23:10:10 23:11:38 11° 67° (ENE) 23:13:05 437.250
50 SAT 27 May 23:30:35 23:33:04 18° 72° (ENE) 23:35:34 437.505
UNISAT 6 27 May 23:37:04 23:41:24 78° 101° (ESE) 23:45:48 437.425
DANDE 27 May 23:42:17 23:50:14 47° 77° (ENE) 23:57:08 436.750
TIGRISAT 27 May 23:44:33 23:48:52 89° 99° (E) 23:53:16 435.000
ESTCUBE 1 27 May 23:46:05 23:50:23 46° 74° (ENE) 23:54:43 437.505/2401.250
CUSAT 1 27 May 23:47:24 23:54:52 84° 265° (W) 00:00:47 437.405
CUBEBUG 1 27 May 23:59:42 00:03:55 45° 74° (ENE) 00:08:09 437.445
DX 1 28 May 00:01:18 00:05:20 38° 73° (ENE) 00:09:24 434.975-435.025
HUMSAT D 28 May 00:04:44 00:06:53 14° 265° (W) 00:09:03 437.325/437.525
VELOX 1 28 May 00:07:08 00:11:29 54° 75° (ENE) 00:15:51 145.980
PHONESAT 2.4 28 May 00:08:16 00:09:59 14° 350° (N) 00:11:41 2401.200-2431.200
AIST 2 28 May 00:14:44 00:18:47 55° 245° (WSW) 00:22:48 435.215
DUCHIFAT 1 28 May 00:16:49 00:20:26 28° 98° (E) 00:24:02 145.980
ANTELSAT 28 May 00:18:42 00:22:32 32° 287° (WNW) 00:26:27 437.575/2403.000
SPROUT 28 May 00:26:03 00:29:51 31° 73° (ENE) 00:33:38 437.525
BUGSAT 1 28 May 00:34:34 00:37:28 19° 96° (E) 00:40:21 437.445
JAS-2 28 May 00:40:00 00:41:53 11° 88° (E) 00:43:42 435.910
SO-50 28 May 00:41:18 00:46:11 89° 109° (ESE) 00:51:07 436.795
Cosmos 2499 28 May 00:42:11 00:47:16 20° 288° (WNW) 00:52:35 435.465 / 435.565
AISAT 28 May 00:43:18 00:47:37 49° 259° (W) 00:51:58 437.250
UKube-1 28 May 00:49:46 00:54:04 65° 258° (WSW) 00:58:23 .
TISAT 1 28 May 00:50:45 00:53:10 15° 69° (ENE) 00:55:35 437.305
POPSAT HIP 1 28 May 00:54:47 00:58:59 78° 283° (WNW) 01:03:10 437.405
QB50P1 28 May 00:55:10 00:59:22 76° 282° (WNW) 01:03:31 145.935-145.965
QB50P2 28 May 00:57:35 01:01:45 66° 284° (WNW) 01:05:55 145.880/145.840
POLYITAN 1 28 May 01:00:03 01:04:12 64° 284° (WNW) 01:08:21 437.675
50 SAT 28 May 01:04:03 01:06:38 18° 264° (W) 01:09:14 437.505
NANOSAT C BR1 28 May 01:13:37 01:17:36 45° 285° (WNW) 01:21:35 145.865
DANDE 28 May 01:25:46 01:32:36 30° 274° (W) 01:38:42 436.750
ESTCUBE 1 28 May 01:25:58 01:27:21 11° 266° (W) 01:28:45 437.505/2401.250
CUBEBUG 1 28 May 01:38:53 01:40:20 11° 266° (W) 01:41:47 437.445
DX 1 28 May 01:39:26 01:41:35 13° 265° (W) 01:43:45 434.975-435.025
SWISSCUBE 28 May 01:41:41 01:43:22 12° 66° (ENE) 01:45:03 437.505
PHONESAT 2.4 28 May 01:46:06 01:47:35 13° 7° (N) 01:49:05 2401.200-2431.200
RS-15 28 May 01:46:11 01:56:07 27° 45° (NE) 02:05:55 29.354- 29.394
ITUPSAT 1 28 May 01:47:51 01:49:41 12° 67° (ENE) 01:51:31 437.325
DUCHIFAT 1 28 May 01:53:15 01:55:51 16° 290° (WNW) 01:58:27 145.980
SPROUT 28 May 02:03:13 02:05:47 15° 265° (W) 02:08:21 437.525
BEESAT 28 May 02:09:11 02:12:49 22° 70° (ENE) 02:16:29 436.000
BUGSAT 1 28 May 02:09:38 02:12:43 22° 288° (WNW) 02:15:48 437.445
JAS-2 28 May 02:20:31 02:27:49 85° 283° (WNW) 02:34:13 435.910
TISAT 1 28 May 02:24:42 02:28:30 32° 262° (W) 02:32:18 437.305
Oscar 19 28 May 02:52:52 02:58:01 82° 284° (WNW) 03:03:08 437.125/150
SWISSCUBE 28 May 03:16:00 03:20:38 54° 259° (W) 03:25:17 437.505
Gurwin Techsat 1B 28 May 03:18:22 03:23:41 69° 102° (ESE) 03:28:57 435.225
PHONESAT 2.4 28 May 03:22:04 03:24:56 32° 23° (NNE) 03:27:47 2401.200-2431.200
ITUPSAT 1 28 May 03:22:23 03:27:00 52° 259° (W) 03:31:39 437.325
YUBILEINY 28 May 03:25:27 03:33:20 36° 77° (ENE) 03:41:11 435.215
ITAMSAT 1 28 May 03:35:30 03:40:16 35° 99° (E) 03:45:00 435.822/435.867
AO-7 28 May 03:43:43 03:49:14 19° 96° (E) 03:54:44 29.400- 29.500
BEESAT 28 May 03:46:24 03:50:24 27° 262° (W) 03:54:26 436.000
RS-15 28 May 03:57:35 04:09:59 83° 246° (WSW) 04:22:08 29.354- 29.394
JAS-2 28 May 04:09:08 04:11:29 12° 301° (WNW) 04:13:46 435.910
Cosmos 2491 28 May 04:12:22 04:20:42 49° 90° (E) 04:29:02 435.465 / 435.565
Cosmos 2504 28 May 04:12:50 04:18:34 19° 73° (ENE) 04:24:22 435.465 / 435.565
KKS-1 28 May 04:34:21 04:38:49 73° 258° (WSW) 04:43:17 437.445
MOZHAYETS 4 28 May 04:52:56 04:57:25 64° 259° (W) 05:01:57
PHONESAT 2.4 28 May 04:58:53 05:01:38 28° 217° (SW) 05:04:21 2401.200-2431.200
Gurwin Techsat 1B 28 May 05:01:24 05:02:58 11° 295° (WNW) 05:04:31 435.225
STARS 28 May 05:08:57 05:13:18 58° 259° (W) 05:17:39 437.465
ITAMSAT 1 28 May 05:15:35 05:19:26 21° 291° (WNW) 05:23:18 435.822/435.867
ISS 28 May 05:16:58 05:20:11 56° 45° (NE) 05:23:22 145.825
YUBILEINY 28 May 05:22:05 05:29:58 39° 272° (W) 05:37:52 435.215
JUGNU 28 May 05:22:16 05:26:14 18° 164° (SSE) 05:30:12 437.505
AO-7 28 May 05:34:07 05:42:26 71° 289° (WNW) 05:50:44 29.400- 29.500
HORYU 2 28 May 05:57:57 06:02:22 68° 101° (ESE) 06:06:47 437.375
NOAA 15 28 May 06:03:45 06:05:11 11° 93° (E) 06:06:37 137.62
Cosmos 2504 28 May 06:03:54 06:12:27 73° 267° (W) 06:21:18 435.465 / 435.565
AO-85 28 May 06:06:48 06:12:13 76° 114° (ESE) 06:17:38 145.980
Cosmos 2491 28 May 06:10:18 06:17:38 29° 285° (WNW) 06:25:02 435.465 / 435.565
NOAA 18 28 May 06:12:25 06:14:16 12° 94° (E) 06:16:04 137.9125
RS-15 28 May 06:14:35 06:20:37 15° 261° (W) 06:26:38 29.354- 29.394
CUBESAT XI-V 28 May 06:19:24 06:24:01 72° 259° (WSW) 06:28:43 437.345
BRITE-PL 28 May 06:28:30 06:31:15 15° 92° (E) 06:33:54 437.365/2234.400
LilacSat-2 28 May 06:50:32 06:53:16 19° 96° (E) 06:56:00 437.200
CUTE-I 28 May 06:53:37 06:58:09 28° 97° (E) 07:02:41 437.470
JUGNU 28 May 07:09:39 07:14:44 29° 173° (S) 07:19:52 437.505
SRMSAT 28 May 07:17:04 07:20:39 16° 163° (SSE) 07:24:12 437.500
AO-7 28 May 07:31:25 07:33:43 11° 306° (NW) 07:36:02 29.400- 29.500
DOVE 4 28 May 07:36:28 07:38:46 14° 94° (E) 07:41:01 437.250
NOAA 15 28 May 07:40:02 07:45:17 63° 285° (WNW) 07:50:27 137.62
Cubesat XI-IV 28 May 07:46:45 07:52:07 83° 285° (WNW) 07:57:29 437.490
NOAA 18 28 May 07:49:46 07:55:11 65° 286° (WNW) 08:00:37 137.9125
AO-85 28 May 07:50:32 07:53:13 14° 310° (NW) 07:55:52 145.980
STRAND 1 28 May 07:51:00 07:56:04 76° 76° (ENE) 08:01:10 437.568
BRITE-PL 28 May 08:05:21 08:09:55 38° 287° (WNW) 08:14:09 437.365/2234.400
HO-68 28 May 08:17:21 08:22:27 20° 96° (E) 08:27:30 435.675
CUTE 1.7 + AOD 2 28 May 08:18:59 08:20:19 11° 93° (E) 08:21:39 437.475
LilacSat-2 28 May 08:24:41 08:27:25 19° 288° (WNW) 08:30:10 437.200
GOMX 1 28 May 08:26:49 08:31:12 48° 285° (WNW) 08:35:19 467.674
CUTE-I 28 May 08:33:34 08:38:03 28° 290° (WNW) 08:42:32 437.470
AIST 1 28 May 08:42:38 08:46:37 35° 81° (E) 08:50:32
Cosmos 2499 28 May 08:46:49 08:51:09 14° 70° (ENE) 08:55:30 435.465 / 435.565
JUGNU 28 May 08:58:07 09:03:21 31° 184° (S) 09:08:34 437.505
SRMSAT 28 May 09:04:18 09:09:18 28° 172° (S) 09:14:16 437.500
DOVE 4 28 May 09:12:47 09:16:33 31° 287° (WNW) 09:20:11 437.250
GONETS M04 28 May 09:15:38 09:23:46 43° 79° (E) 09:31:51
UWE-3 28 May 09:16:35 09:17:21 10° 94° (E) 09:18:08 435.000/436.395/437.385
PRISM 28 May 09:17:37 09:21:43 65° 259° (WSW) 09:25:51 437.425
SO-50 28 May 09:20:03 09:23:01 16° 52° (NE) 09:25:54 436.795
CANX-2 28 May 09:24:53 09:29:11 82° 282° (WNW) 09:33:28 2200.000
SEEDS 28 May 09:26:18 09:30:31 60° 101° (E) 09:34:43 437.485
O/OREOS (USA 219) 28 May 09:28:38 09:33:01 47° 105° (ESE) 09:37:23 437.305
CINEMA 3 28 May 09:38:00 09:42:05 60° 283° (WNW) 09:46:11 145.822/145.860
AUBIESAT-1 28 May 09:41:30 09:44:43 53° 288° (WNW) 09:48:00 437.475
M-CUBED/EXP-1 PRIME 28 May 09:49:05 09:52:00 30° 290° (WNW) 09:54:55 437.505
CUTE 1.7 + AOD 2 28 May 09:52:14 09:56:16 42° 285° (WNW) 10:00:19 437.475
PCSat 28 May 09:56:28 10:01:53 86° 113° (ESE) 10:07:20 145.827
Oscar 11 28 May 09:59:05 10:02:51 28° 98° (E) 10:06:35 145.826/435.025
HO-68 28 May 10:03:23 10:10:22 57° 289° (WNW) 10:17:21 435.675
COMPASS 1 28 May 10:11:15 10:15:21 50° 284° (WNW) 10:19:25 437.405
AAUSAT CUBESAT 2 28 May 10:13:02 10:17:11 62° 283° (WNW) 10:21:19 437.432
ZACube-1 28 May 10:14:20 10:18:17 38° 99° (E) 10:22:18 437.345
AIST 1 28 May 10:21:58 10:23:47 12° 273° (W) 10:25:35
CUBEBUG 2 28 May 10:22:44 10:26:52 64° 283° (WNW) 10:31:04 437.445
UNISAT 6 28 May 10:30:18 10:34:10 31° 73° (ENE) 10:37:59 437.425
Cosmos 2499 28 May 10:36:22 10:45:09 89° 95° (E) 10:54:03 435.465 / 435.565
DELFI C3 28 May 10:37:25 10:41:09 36° 99° (E) 10:44:51 145.870
TIGRISAT 28 May 10:37:27 10:41:27 35° 74° (ENE) 10:45:23 435.000
BEESAT 3 28 May 10:46:35 10:49:27 20° 110° (ESE) 10:52:20 437.485
JUGNU 28 May 10:47:24 10:51:54 22° 193° (SSW) 10:56:22 437.505
UWE-3 28 May 10:49:57 10:53:56 43° 285° (WNW) 10:57:59 435.000/436.395/437.385
FUNcube-1 28 May 10:51:49 10:56:00 72° 284° (WNW) 11:00:17 145.935
SRMSAT 28 May 10:52:49 10:58:02 32° 182° (S) 11:03:14 437.500
SO-50 28 May 10:59:20 11:03:39 41° 248° (WSW) 11:07:50 436.795
CUSAT 1 28 May 11:02:01 11:05:41 16° 81° (E) 11:09:45 437.405
DUCHIFAT 1 28 May 11:05:59 11:06:26 10° 68° (ENE) 11:06:54 145.980
O/OREOS (USA 219) 28 May 11:10:44 11:12:37 12° 298° (WNW) 11:14:30 437.305
ANTELSAT 28 May 11:10:54 11:15:18 79° 259° (W) 11:19:38 437.575/2403.000
GONETS M04 28 May 11:12:52 11:20:12 32° 274° (W) 11:27:34
Oscar 11 28 May 11:35:47 11:38:42 18° 290° (WNW) 11:41:38 145.826/435.025
POPSAT HIP 1 28 May 11:41:23 11:45:12 33° 74° (ENE) 11:49:01 437.405
QB50P1 28 May 11:41:41 11:45:31 34° 74° (ENE) 11:49:22 145.935-145.965
QB50P2 28 May 11:44:08 11:48:06 39° 74° (ENE) 11:52:03 145.880/145.840
PCSat 28 May 11:44:42 11:45:54 11° 309° (NW) 11:47:07 145.827
ESTCUBE 1 28 May 11:45:47 11:48:37 16° 95° (E) 11:51:26 437.505/2401.250
POLYITAN 1 28 May 11:46:35 11:50:34 40° 74° (ENE) 11:54:32 437.675
BEESAT 2 28 May 11:49:43 11:53:38 69° 115° (ESE) 11:57:36 435.950
HUMSAT D 28 May 11:51:46 11:55:51 57° 284° (WNW) 12:00:00 437.325/437.525
ZACube-1 28 May 11:52:22 11:54:13 13° 291° (WNW) 11:56:04 437.345
CUBEBUG 1 28 May 11:56:04 11:58:10 13° 94° (E) 12:00:15 437.445
DX 1 28 May 11:58:23 11:59:03 10° 94° (E) 11:59:44 434.975-435.025
NANOSAT C BR1 28 May 11:59:19 12:03:27 55° 76° (ENE) 12:07:35 145.865
VELOX 1 28 May 12:04:30 12:07:19 17° 95° (E) 12:10:08 145.980
UNISAT 6 28 May 12:08:12 12:10:52 16° 264° (W) 12:13:32 437.425
DELFI C3 28 May 12:14:01 12:15:38 12° 291° (WNW) 12:17:14 145.870
TIGRISAT 28 May 12:15:57 12:18:10 14° 265° (W) 12:20:25 435.000
BEESAT 3 28 May 12:23:49 12:26:58 23° 303° (WNW) 12:30:08 437.485
JAS-2 28 May 12:25:19 12:31:03 26° 65° (ENE) 12:37:05 435.910
Cosmos 2499 28 May 12:33:07 12:37:06 14° 279° (W) 12:41:07 435.465 / 435.565
DUCHIFAT 1 28 May 12:37:35 12:41:39 48° 260° (W) 12:45:44 145.980
50 SAT 28 May 12:38:02 12:41:41 53° 100° (E) 12:45:20 437.505
AISAT 28 May 12:39:27 12:43:43 49° 100° (E) 12:47:57 437.250
CUSAT 1 28 May 12:40:50 12:46:40 63° 281° (W) 12:54:01 437.405
SRMSAT 28 May 12:42:06 12:46:44 24° 192° (SSW) 12:51:22 437.500
DANDE 28 May 12:43:08 12:48:00 59° 92° (E) 12:54:31 436.750
UKube-1 28 May 12:43:09 12:47:01 32° 99° (E) 12:50:52 .
BUGSAT 1 28 May 12:52:03 12:56:16 76° 260° (W) 13:00:28 437.445
POPSAT HIP 1 28 May 13:18:46 13:21:01 14° 265° (W) 13:23:15 437.405
QB50P1 28 May 13:19:11 13:21:20 14° 265° (W) 13:23:29 145.935-145.965
ESTCUBE 1 28 May 13:21:21 13:25:26 33° 287° (WNW) 13:29:30 437.505/2401.250
QB50P2 28 May 13:22:25 13:23:59 12° 266° (W) 13:25:33 145.880/145.840
POLYITAN 1 28 May 13:25:03 13:26:28 11° 266° (W) 13:27:52 437.675
CUBEBUG 1 28 May 13:30:31 13:34:32 37° 286° (WNW) 13:38:30 437.445
DX 1 28 May 13:31:14 13:35:25 46° 286° (WNW) 13:39:33 434.975-435.025
VELOX 1 28 May 13:39:54 13:43:46 31° 288° (WNW) 13:47:37 145.980
SPROUT 28 May 13:53:17 13:57:26 55° 285° (WNW) 14:01:35 437.525
Oscar 19 28 May 14:03:24 14:08:35 78° 77° (ENE) 14:13:47 437.125/150
AIST 2 28 May 14:06:16 14:10:19 60° 298° (WNW) 14:14:24 435.215
JAS-2 28 May 14:08:31 14:15:25 54° 261° (W) 14:22:59 435.910
TISAT 1 28 May 14:14:07 14:18:13 58° 101° (ESE) 14:22:18 437.305
AISAT 28 May 14:18:30 14:19:41 11° 293° (WNW) 14:20:53 437.250
UKube-1 28 May 14:20:09 14:22:45 16° 291° (WNW) 14:25:21 .
DANDE 28 May 14:28:44 14:31:45 15° 295° (WNW) 14:35:09 436.750
Cosmos 2491 28 May 14:32:25 14:37:31 16° 70° (ENE) 14:42:33 435.465 / 435.565
Gurwin Techsat 1B 28 May 14:33:22 14:38:34 60° 75° (ENE) 14:43:48 435.225
SRMSAT 28 May 14:33:23 14:35:20 12° 200° (SSW) 14:37:17 437.500
AO-7 28 May 14:37:52 14:42:31 16° 57° (ENE) 14:47:10 29.400- 29.500
AO-85 28 May 14:47:18 14:49:16 13° 49° (NE) 14:51:10 145.980
ITAMSAT 1 28 May 14:47:50 14:52:15 29° 71° (ENE) 14:56:41 435.822/435.867
SWISSCUBE 28 May 15:22:01 15:26:47 63° 101° (ESE) 15:31:32 437.505
ITUPSAT 1 28 May 15:28:42 15:33:28 65° 102° (ESE) 15:38:14 437.325
BEESAT 28 May 15:51:38 15:56:23 66° 284° (WNW) 16:01:08 436.000
RS-15 28 May 16:03:55 16:12:14 25° 102° (ESE) 16:20:47 29.354- 29.394
Gurwin Techsat 1B 28 May 16:16:54 16:18:47 12° 267° (W) 16:20:41 435.225
